Location: Township of Marena
(38.1747°N, 99.6798°W)
Time: 11:02:17
(UTC+00:00)

Timation 2 Rocket - Pass Details

Date: 26 October 2020
Orbit: 904 x 1077 km, 70.0° (Epoch: 24 November)

Event Time Altitude Azimuth Distance (km) Brightness Sun altitude
Rises 00:19:39 0° 342° (NNW) 3,745 7.2 -7.1°
Reaches altitude 10° 00:22:22 10° 349° (N) 2,816 6.4 -7.6°
Maximum altitude 00:28:38 43° 60° (ENE) 1,436 4.5 -8.9°
Drops below altitude 10° 00:35:03 10° 130° (SE) 2,891 6.1 -10.1°
Sets 00:37:51 0° 137° (SE) 3,852 6.8 -10.7°
